Weather reports worldwide

Advertisment
Berlin-Schönefeld, Germany (10385): temperature & dewpoint: 12.10.2018 03:00:00 - 18.10.2018 03:00:00 (CEST)Berlin-Schönefeld, Germany (10385): temperature 5cm & temperature -5cm: 12.10.2018 03:00:00 - 18.10.2018 03:00:00 (CEST)Berlin-Schönefeld, Germany (10385): temperature -20cm & temperature -100cm: 12.10.2018 03:00:00 - 18.10.2018 03:00:00 (CEST)Berlin-Schönefeld, Germany (10385): wind speed & gusts: 12.10.2018 03:00:00 - 18.10.2018 03:00:00 (CEST)Berlin-Schönefeld, Germany (10385): wind direction: 12.10.2018 03:00:00 - 18.10.2018 03:00:00 (CEST)Berlin-Schönefeld, Germany (10385): reduced air pressure: 12.10.2018 03:00:00 - 18.10.2018 03:00:00 (CEST)Berlin-Schönefeld, Germany (10385): visibility: 12.10.2018 03:00:00 - 18.10.2018 03:00:00 (CEST)Berlin-Schönefeld, Germany (10385): sunshine duration: 12.10.2018 03:00:00 - 18.10.2018 03:00:00 (CEST)Berlin-Schönefeld, Germany (10385): precipitation: 12.10.2018 03:00:00 - 18.10.2018 03:00:00 (CEST)
Date & Time tt [°C] td [°C] tt 5cm [°C] tt -5cm [°C] tt -20cm [°C] tt -100cm [°C] ff [km/h] ff [kn] fx [km/h] fx [kn] dd ppp [hPa] vv [km] sd [min] rr [mm]
18.10.2018 03:00:00 7,0 6,6 3,4 9,3 12,7 14,3 2 1 4 2 NNE 1019,7 10 0 0,0
18.10.2018 02:00:00 8,7 8,2 4,6 9,7 13,0 14,3 4 2 4 2 - 1019,6 10 0 0,0
18.10.2018 01:00:00 7,8 7,1 3,7 10,2 13,3 14,3 5 3 5 3 E 1019,6 10 0 0,0
18.10.2018 00:00:00 9,6 8,6 5,8 10,7 13,6 14,3 2 1 8 4 - 1019,6 10 0 0,0
17.10.2018 23:00:00 10,0 8,0 6,0 11,4 14,0 14,3 2 1 11 6 - 1019,8 10 0 0,0
17.10.2018 22:00:00 10,4 9,0 6,1 12,1 14,3 14,3 5 3 10 6 E 1019,7 10 0 0,0
17.10.2018 21:00:00 11,6 9,4 8,3 12,9 14,7 14,3 4 2 13 7 E 1019,5 10 0 0,0
17.10.2018 20:00:00 13,7 9,8 8,8 13,9 15,0 14,3 8 4 11 6 ESE 1019,4 10 0 0,0
17.10.2018 19:00:00 14,5 9,8 9,5 15,2 15,2 14,3 5 3 9 5 E 1019,1 10 0 0,0
17.10.2018 18:00:00 17,7 9,5 13,1 17,1 15,2 14,3 2 1 11 6 - 1018,9 10 35 0,0
17.10.2018 17:00:00 19,3 9,4 21,2 18,8 14,9 14,4 8 4 15 8 ESE 1018,5 10 60 0,0
17.10.2018 16:00:00 19,8 9,8 24,1 19,6 14,3 14,4 8 4 13 7 SE 1018,7 10 60 0,0
17.10.2018 15:00:00 19,8 9,5 25,1 19,5 13,6 14,4 8 4 13 7 SE 1018,8 10 60 0,0
17.10.2018 14:00:00 19,2 9,5 24,7 18,6 12,8 14,4 8 4 13 7 SSE 1019,1 10 60 0,0
17.10.2018 13:00:00 18,6 8,9 22,9 16,7 12,1 14,4 4 2 11 6 - 1019,6 10 60 0,0
17.10.2018 12:00:00 16,0 9,0 20,5 14,3 11,5 14,4 9 5 13 7 SE 1020,1 10 60 0,0
17.10.2018 11:00:00 13,2 8,2 16,3 11,6 11,3 14,4 5 3 9 5 S 1020,3 10 60 0,0
17.10.2018 10:00:00 11,8 8,0 12,2 9,2 11,2 14,4 2 1 8 4 - 1020,0 10 60 0,0
17.10.2018 09:00:00 7,7 6,5 7,1 8,1 11,4 14,4 2 1 8 4 - 1020,1 7 41 0,0
17.10.2018 08:00:00 6,2 6,0 3,1 7,8 11,6 14,4 4 2 5 3 ESE 1019,9 6 0 0,0
17.10.2018 07:00:00 6,3 6,0 2,8 8,1 11,9 14,4 4 2 8 4 - 1019,5 4,0 0 0,0
17.10.2018 06:00:00 6,8 6,6 2,7 8,4 12,2 14,4 4 2 5 3 SE 1019,4 7 0 0,0
17.10.2018 05:00:00 6,9 6,5 2,2 8,8 12,4 14,4 4 2 8 4 E 1019,2 9 0 0,0
17.10.2018 04:00:00 6,9 6,3 3,9 9,2 12,7 14,4 5 3 11 6 E 1019,3 10 0 0,0
17.10.2018 03:00:00 6,9 6,4 4,6 9,6 13,0 14,4 6 3 8 4 SE 1019,5 15 0 0,0
17.10.2018 02:00:00 8,2 6,9 4,7 10,1 13,3 14,4 2 1 4 2 - 1019,5 10 0 0,0
17.10.2018 01:00:00 8,8 7,3 5,9 10,6 13,6 14,4 2 1 9 5 E 1019,5 15 0 0,0
17.10.2018 00:00:00 9,0 7,0 5,5 11,1 14,0 14,4 4 2 5 3 SE 1019,6 10 0 0,0
16.10.2018 23:00:00 10,2 7,4 6,8 11,8 14,3 14,4 2 1 7 4 ESE 1019,5 10 0 0,0
16.10.2018 22:00:00 11,8 8,7 7,2 12,5 14,6 14,4 2 1 5 3 NNE 1019,6 10 0 0,0
16.10.2018 21:00:00 12,0 8,6 7,4 13,3 15,0 14,4 4 2 9 5 E 1019,6 10 0 0,0
16.10.2018 20:00:00 13,5 7,9 9,5 14,4 15,2 14,4 9 5 11 6 ENE 1019,5 30 0 0,0
16.10.2018 19:00:00 15,9 8,2 11,3 15,7 15,4 14,4 4 2 9 5 NNE 1019,1 10 0 0,0
16.10.2018 18:00:00 19,1 7,4 15,0 17,5 15,4 14,5 4 2 11 6 S 1018,6 10 25 0,0
16.10.2018 17:00:00 20,4 7,3 21,2 19,0 15,1 14,5 5 3 9 5 SW 1018,4 10 60 0,0
16.10.2018 16:00:00 20,8 7,2 24,0 19,7 14,5 14,5 7 4 12 7 SW 1018,3 30 59 0,0
16.10.2018 15:00:00 20,3 6,2 25,7 19,6 13,9 14,5 6 3 13 7 E 1018,3 35 24 0,0
16.10.2018 14:00:00 20,4 7,3 27,5 18,6 13,1 14,5 8 4 15 8 SE 1018,3 10 53 0,0
16.10.2018 13:00:00 18,8 6,5 23,8 16,3 12,5 14,5 9 5 13 7 ESE 1018,6 35 28 0,0
16.10.2018 12:00:00 16,2 7,7 17,5 14,9 12,0 14,5 8 5 16 9 SE 1018,8 30 50 0,0
16.10.2018 11:00:00 15,8 7,6 19,0 12,4 11,7 14,5 13 7 18 10 SE 1018,6 10 60 0,0
16.10.2018 10:00:00 12,4 7,2 13,8 9,9 11,7 14,5 8 4 9 5 ESE 1018,5 10 60 0,0
16.10.2018 09:00:00 9,7 6,2 8,7 8,9 11,8 14,5 4 2 5 3 ENE 1018,3 25 35 0,0
16.10.2018 08:00:00 7,9 5,5 6,2 8,6 12,0 14,5 5 3 15 8 ENE 1018,2 10 0 0,0
16.10.2018 07:00:00 7,2 5,0 4,6 8,7 12,2 14,5 9 5 14 7 E 1017,6 10 0 0,0
16.10.2018 06:00:00 7,7 5,2 5,1 9,0 12,4 14,5 6 4 8 4 ESE 1017,3 35 0 0,0
16.10.2018 05:00:00 9,1 5,6 7,3 9,3 12,7 14,5 5 3 8 4 E 1017,2 35 0 0,0
16.10.2018 04:00:00 9,1 5,3 6,5 9,6 12,9 14,5 6 3 9 5 ESE 1017,1 35 0 0,0
16.10.2018 03:00:00 9,2 5,5 5,3 9,9 13,2 14,5 5 3 9 5 ESE 1017,1 10 0 0,0
16.10.2018 02:00:00 10,0 5,2 6,7 10,3 13,5 14,5 8 4 11 6 ESE 1017,0 10 0 0,0
16.10.2018 01:00:00 10,6 5,2 7,5 10,7 13,8 14,5 11 6 15 8 SE 1016,9 10 0 0,0
16.10.2018 00:00:00 10,1 4,9 6,4 11,1 14,1 14,5 8 4 13 7 ESE 1017,1 35 0 0,0
15.10.2018 23:00:00 10,3 5,0 5,8 11,7 14,4 14,5 5 3 9 5 ESE 1017,2 10 0 0,0
15.10.2018 22:00:00 11,6 5,3 7,7 12,3 14,8 14,5 9 5 15 8 ESE 1016,9 10 0 0,0
15.10.2018 21:00:00 12,6 5,4 8,4 13,1 15,1 14,5 13 7 15 8 ESE 1016,7 35 0 0,0
15.10.2018 20:00:00 14,1 5,5 9,8 14,0 15,4 14,5 8 4 13 7 ENE 1016,7 10 0 0,0
15.10.2018 19:00:00 15,9 5,5 10,7 15,3 15,7 14,5 8 5 15 8 E 1016,3 35 0 0,0
15.10.2018 18:00:00 17,7 5,1 13,8 17,0 15,7 14,5 12 7 21 11 ESE 1016,1 35 15 0,0
15.10.2018 17:00:00 19,7 5,1 19,8 18,7 15,5 14,5 13 7 27 14 SE 1015,8 35 56 0,0
15.10.2018 16:00:00 20,7 4,9 24,6 19,4 15,1 14,5 16 9 25 13 SE 1015,8 10 48 0,0
15.10.2018 15:00:00 20,3 6,6 21,6 19,1 14,6 14,5 21 11 35 19 SSE 1016,0 10 37 0,0
15.10.2018 14:00:00 20,1 5,6 21,1 18,2 14,1 14,5 18 10 24 13 SE 1016,0 10 0 0,0
15.10.2018 13:00:00 20,0 5,5 21,5 18,6 13,4 14,5 15 8 27 14 SSE 1016,0 10 54 0,0
15.10.2018 12:00:00 20,3 5,4 24,4 16,2 12,7 14,5 15 8 36 20 S 1016,1 10 60 0,0
15.10.2018 11:00:00 18,1 5,0 20,7 13,3 12,4 14,5 22 12 31 17 S 1016,1 40 60 0,0
15.10.2018 10:00:00 15,8 5,0 16,3 10,5 12,4 14,5 16 9 26 14 SSE 1015,9 10 60 0,0
15.10.2018 09:00:00 10,3 5,4 7,4 9,3 12,6 14,5 8 4 9 5 E 1015,9 10 3 0,0
15.10.2018 08:00:00 10,5 5,0 5,7 9,4 12,9 14,5 8 4 15 8 E 1015,6 10 0 0,0
15.10.2018 07:00:00 11,2 4,8 6,4 9,7 13,1 14,5 11 6 22 12 SE 1015,3 10 0 0,0
15.10.2018 06:00:00 11,4 4,9 7,0 10,0 13,4 14,5 11 6 15 8 SE 1015,4 10 0 0,0
15.10.2018 05:00:00 12,0 4,8 6,9 10,4 13,7 14,5 5 3 13 7 ESE 1015,4 10 0 0,0
15.10.2018 04:00:00 12,5 4,7 7,9 10,8 14,0 14,5 11 6 18 10 SE 1015,3 10 0 0,0
15.10.2018 03:00:00 12,8 4,9 7,4 11,2 14,3 14,5 11 6 15 8 ESE 1015,4 10 0 0,0
15.10.2018 02:00:00 13,8 5,2 9,0 11,7 14,6 14,5 9 5 16 9 ESE 1015,3 10 0 0,0
15.10.2018 01:00:00 14,5 5,7 9,2 12,3 14,9 14,4 9 5 16 9 SE 1015,1 10 0 0,0
15.10.2018 00:00:00 15,1 6,3 10,3 12,9 15,3 14,4 9 5 18 10 SE 1015,0 10 0 0,0
14.10.2018 23:00:00 14,8 6,9 10,1 13,6 15,6 14,4 13 7 21 11 ESE 1015,0 10 0 0,0
14.10.2018 22:00:00 16,7 6,8 12,7 14,4 16,0 14,4 15 8 27 14 SE 1014,8 10 0 0,0
14.10.2018 21:00:00 17,5 7,2 12,9 15,0 16,3 14,4 15 8 21 11 SE 1014,9 10 0 0,0
14.10.2018 20:00:00 17,7 7,7 12,2 16,0 16,7 14,4 13 7 18 10 SE 1015,0 10 0 0,0
14.10.2018 19:00:00 19,2 7,8 13,5 17,5 16,9 14,4 11 6 28 15 ESE 1014,8 10 0 0,0
14.10.2018 18:00:00 21,5 7,7 18,7 19,5 16,8 14,4 15 8 29 16 SE 1014,6 10 54 0,0
14.10.2018 17:00:00 23,5 7,2 24,4 21,1 16,5 14,4 21 11 39 21 SSE 1014,6 10 60 0,0
14.10.2018 16:00:00 23,9 7,2 26,9 21,9 16,0 14,4 24 13 36 19 SE 1014,6 35 60 0,0
14.10.2018 15:00:00 23,7 7,7 28,0 21,8 15,3 14,4 24 13 41 22 SE 1015,0 10 60 0,0
14.10.2018 14:00:00 22,5 8,1 27,4 20,8 14,5 14,4 22 12 35 19 SSE 1015,7 10 60 0,0
14.10.2018 13:00:00 21,5 8,7 26,5 19,2 13,8 14,4 21 11 40 21 SSE 1016,3 35 60 0,0
14.10.2018 12:00:00 20,2 8,4 23,9 16,8 13,2 14,4 26 14 37 20 SSE 1016,7 10 60 0,0
14.10.2018 11:00:00 18,3 8,7 20,7 14,2 12,8 14,4 22 12 36 20 SSE 1017,1 10 60 0,0
14.10.2018 10:00:00 15,9 8,6 16,7 11,4 12,8 14,4 16 9 26 14 SE 1017,5 30 60 0,0
14.10.2018 09:00:00 13,4 8,2 11,5 10,3 13,0 14,4 14 8 21 11 SE 1017,6 25 52 0,0
14.10.2018 08:00:00 12,0 7,9 8,8 10,0 13,2 14,4 13 7 22 12 SE 1017,6 25 0 0,0
14.10.2018 07:00:00 11,2 7,6 7,1 10,3 13,4 14,4 13 7 21 11 ESE 1017,8 10 0 0,0
14.10.2018 06:00:00 12,0 7,9 8,4 10,8 13,7 14,4 14 8 21 11 ESE 1018,3 30 0 0,0
14.10.2018 05:00:00 13,3 8,3 10,2 11,1 13,9 14,4 13 7 23 13 SE 1018,7 10 0 0,0
14.10.2018 04:00:00 13,2 8,5 10,1 11,2 14,2 14,4 13 7 21 11 SE 1019,2 10 0 0,0
14.10.2018 03:00:00 12,5 8,4 9,1 11,5 14,6 14,4 15 8 18 10 ESE 1019,9 35 0 0,0
14.10.2018 02:00:00 12,5 8,5 9,1 12,0 14,9 14,4 15 8 21 11 ESE 1020,4 10 0 0,0
14.10.2018 01:00:00 14,1 8,8 9,5 12,7 15,2 14,3 13 7 18 10 ESE 1020,9 35 0 0,0
14.10.2018 00:00:00 14,4 9,1 9,9 13,2 15,6 14,3 13 7 18 10 ESE 1021,1 10 0 0,0
13.10.2018 23:00:00 14,7 9,1 10,4 14,0 16,0 14,3 13 7 22 12 ESE 1021,3 10 0 0,0
13.10.2018 22:00:00 15,3 9,2 10,8 14,7 16,4 14,3 13 7 21 11 ESE 1021,5 10 0 0,0
13.10.2018 21:00:00 16,7 9,4 12,8 15,5 16,8 14,3 15 8 21 11 ESE 1021,7 10 0 0,0
13.10.2018 20:00:00 17,4 9,4 12,3 16,6 17,2 14,3 13 7 18 10 ESE 1022,1 10 0 0,0
13.10.2018 19:00:00 19,0 9,1 13,3 18,3 17,4 14,3 11 6 18 10 E 1022,0 10 0 0,0
13.10.2018 18:00:00 21,6 9,0 18,5 20,5 17,4 14,3 11 6 20 11 ESE 1022,0 10 60 0,0
13.10.2018 17:00:00 24,0 9,4 26,1 22,3 17,1 14,3 16 9 29 16 ESE 1022,4 45 60 0,0
13.10.2018 16:00:00 25,0 9,2 29,2 23,2 16,5 14,3 16 9 31 17 SSE 1022,6 45 60 0,0
13.10.2018 15:00:00 24,8 9,0 29,6 23,2 15,7 14,3 23 13 36 20 SSE 1023,2 40 60 0,0
13.10.2018 14:00:00 24,8 10,5 30,0 22,2 14,9 14,3 16 9 29 16 SE 1023,7 35 60 0,0
13.10.2018 13:00:00 23,3 10,9 29,0 20,4 14,0 14,3 13 7 21 11 SE 1024,4 10 60 0,0
13.10.2018 12:00:00 21,4 10,6 26,2 17,8 13,3 14,3 10 6 15 8 SE 1024,9 25 60 0,0
13.10.2018 11:00:00 19,4 10,6 23,1 14,9 12,9 14,3 11 6 16 9 SE 1025,1 10 60 0,0
13.10.2018 10:00:00 16,7 10,6 17,7 11,9 12,9 14,3 8 5 13 7 SE 1025,4 27 60 0,0
13.10.2018 09:00:00 12,7 9,5 10,8 10,7 13,0 14,3 5 3 11 6 ESE 1025,6 27 55 0,0
13.10.2018 08:00:00 10,1 8,6 7,8 10,4 13,3 14,3 8 4 15 8 ESE 1025,4 10 0 0,0
13.10.2018 07:00:00 10,2 8,9 7,1 10,6 13,5 14,3 8 4 11 6 ESE 1025,2 10 0 0,0
13.10.2018 06:00:00 10,5 8,9 7,9 11,0 13,7 14,3 7 4 14 8 ESE 1025,2 25 0 0,0
13.10.2018 05:00:00 11,0 9,2 7,4 11,3 14,0 14,2 6 3 11 6 ESE 1024,9 30 0 0,0
13.10.2018 04:00:00 11,4 9,4 8,6 11,7 14,3 14,2 9 5 11 6 ESE 1024,7 10 0 0,0
13.10.2018 03:00:00 12,6 10,0 8,5 12,1 14,6 14,2 5 3 9 5 SE 1024,7 10 0 0,0
13.10.2018 02:00:00 12,7 10,0 9,5 12,6 14,9 14,2 7 4 11 6 ESE 1024,8 30 0 0,0
13.10.2018 01:00:00 13,7 10,4 9,7 13,1 15,2 14,2 7 4 9 5 ESE 1024,6 30 0 0,0
13.10.2018 00:00:00 13,8 10,2 9,6 13,6 15,5 14,2 5 3 8 4 E 1024,6 30 0 0,0
12.10.2018 23:00:00 14,7 10,7 12,1 14,2 15,9 14,2 7 4 9 5 SE 1024,6 30 0 0,0
12.10.2018 22:00:00 15,5 10,9 11,7 15,0 16,2 14,2 4 2 18 10 - 1024,5 10 0 0,0
12.10.2018 21:00:00 15,1 10,5 11,0 15,8 16,6 14,2 5 3 15 8 ESE 1024,4 10 0 0,0
12.10.2018 20:00:00 18,6 10,8 12,8 17,0 16,9 14,2 8 4 15 8 SSE 1024,0 10 0 0,0
12.10.2018 19:00:00 20,3 10,8 14,6 18,6 17,1 14,2 9 5 14 8 SE 1023,4 40 0 0,0
12.10.2018 18:00:00 23,5 10,2 20,3 20,6 17,0 14,2 9 5 15 8 SE 1023,0 10 58 0,0
12.10.2018 17:00:00 24,7 9,7 27,0 22,2 16,6 14,2 8 4 16 9 SSE 1023,0 10 60 0,0
12.10.2018 16:00:00 25,0 9,5 27,8 22,9 16,0 14,2 10 5 21 11 S 1022,8 40 60 0,0
12.10.2018 15:00:00 24,4 9,8 28,2 22,7 15,2 14,2 11 6 22 12 S 1022,7 10 60 0,0
12.10.2018 14:00:00 23,2 10,2 29,3 21,6 14,3 14,2 13 7 21 11 S 1022,7 30 60 0,0
12.10.2018 13:00:00 21,7 9,9 27,4 19,6 13,4 14,2 13 7 18 10 SSE 1022,8 10 60 0,0
12.10.2018 12:00:00 20,1 9,9 23,9 17,1 12,7 14,2 9 5 23 12 SSW 1023,0 30 60 0,0
12.10.2018 11:00:00 18,4 10,0 21,1 14,2 12,3 14,2 13 7 22 12 SSE 1022,7 10 60 0,0
12.10.2018 10:00:00 16,1 10,1 16,9 11,3 12,3 14,2 13 7 21 11 SSE 1021,8 25 60 0,0
12.10.2018 09:00:00 13,2 9,8 10,6 9,9 12,4 14,2 5 3 11 6 SE 1021,6 10 56 0,0
12.10.2018 08:00:00 10,8 8,7 7,8 9,5 12,6 14,2 9 5 15 8 SE 1021,1 10 0 0,0
12.10.2018 07:00:00 10,6 8,5 6,9 9,7 12,9 14,2 9 5 14 7 ESE 1020,5 10 0 0,0
12.10.2018 06:00:00 11,2 8,7 7,0 10,0 13,1 14,1 11 6 15 8 ESE 1020,0 10 0 0,0
12.10.2018 05:00:00 11,8 8,8 7,1 10,4 13,4 14,1 11 6 14 8 ESE 1019,8 10 0 0,0
12.10.2018 04:00:00 12,9 8,9 8,3 10,8 13,7 14,1 11 6 16 8 ESE 1019,5 10 0 0,0
12.10.2018 03:00:00 13,1 8,5 8,6 11,3 14,0 14,1 15 8 18 10 ESE 1019,2 10 0 0,0

tt = temperature
td = dewpoint
tt 5cm = temperature 5cm
tt -5cm = temperature -5cm
tt -20cm = temperature -20cm
tt -100cm = temperature -100cm
ff = wind speed
fx = gusts
dd = wind direction
ppp = reduced air pressure
vv = visibility
sd = sunshine duration
rr = precipitation

Next stations